Location: Dal�� Lhota
(48.7500°N, 14.0167°E)
Time: 06:31:18
(UTC+00:00)

Transit 4A - Visible Passes

Search period start: 31 July 2021 00:00
Search period end: 10 August 2021 00:00
Orbit: 872 x 972 km, 66.8° (Epoch: 30 July)

Date Brightness Start Highest point End Pass type
(mag) Time Alt. Az. Time Alt. Az. Time Alt. Az.
31 Jul 8.2 00:13:07 30° WSW 00:15:55 58° NW 00:21:41 10° NNE visible
31 Jul 9.9 01:59:23 10° WNW 02:03:31 19° NNW 02:07:39 10° NNE visible
31 Jul 8.2 22:38:26 42° SE 22:38:59 43° ESE 22:44:29 10° NE visible
01 Aug 8.6 00:21:55 22° WSW 00:25:21 43° NW 00:30:56 10° NNE visible
01 Aug 10.1 02:09:38 10° WNW 02:13:17 17° NNW 02:16:56 10° NNE visible
01 Aug 9.9 21:03:42 10° E 21:03:42 10° E 21:03:46 10° E visible
01 Aug 7.8 22:47:11 53° SSE 22:48:11 61° ESE 22:53:56 10° NE visible
02 Aug 9.1 00:30:40 15° W 00:34:53 33° NW 00:40:09 10° NNE visible
02 Aug 10.2 02:19:56 10° NW 02:23:07 15° NNW 02:26:18 10° NNE visible
02 Aug 9.4 21:12:24 16° E 21:12:24 16° E 21:15:22 10° ENE visible
02 Aug 7.7 22:55:53 52° SSW 22:57:25 85° SE 23:03:18 10° NE visible
03 Aug 9.5 00:39:35 10° W 00:44:28 27° NW 00:49:22 10° NNE visible
03 Aug 10.3 02:30:09 10° NW 02:32:58 13° N 02:35:48 10° NNE visible
03 Aug 9.0 21:21:03 24° ESE 21:21:03 24° ESE 21:25:27 10° ENE visible
03 Aug 7.9 23:04:31 39° SW 23:06:45 71° NW 23:12:36 10° NNE visible
04 Aug 9.8 00:49:42 10° WNW 00:54:08 22° NNW 00:58:35 10° NNE visible
04 Aug 10.3 02:40:13 10° NNW 02:42:51 13° N 02:45:30 10° NNE visible
04 Aug 8.4 21:29:36 34° ESE 21:30:01 34° ESE 21:35:11 10° NE visible
04 Aug 8.4 23:13:05 27° WSW 23:16:09 52° NW 23:21:52 10° NNE visible
05 Aug 10.1 00:59:55 10° WNW 01:03:52 18° NNW 01:07:50 10° NNE visible
05 Aug 10.4 02:50:03 10° NNW 02:52:44 13° N 02:55:27 10° NNE visible
05 Aug 8.0 21:38:06 43° SSE 21:39:08 48° ESE 21:44:44 10° NE visible
05 Aug 8.9 23:21:33 17° WSW 23:25:37 39° NW 23:31:06 10° NNE visible
06 Aug 10.2 01:10:11 10° NW 01:13:40 16° NNW 01:17:09 10° NNE visible
06 Aug 10.4 02:59:39 10° NNW 03:02:37 14° N 03:05:36 10° NE visible
06 Aug 9.5 20:03:00 12° ESE 20:03:04 12° ESE 20:05:15 10° E visible
06 Aug 7.7 21:46:27 43° S 21:48:20 69° ESE 21:54:09 10° NE visible
06 Aug 9.4 23:30:01 10° W 23:35:10 31° NW 23:40:19 10° NNE visible
07 Aug 10.3 01:20:27 10° NW 01:23:30 14° NNW 01:26:33 10° NNE visible
07 Aug 9.1 20:11:13 18° ESE 20:12:01 19° ESE 20:15:54 10° ENE visible
07 Aug 7.7 21:54:39 31° SW 21:57:37 86° NW 22:03:29 10° NE visible
07 Aug 9.7 23:40:03 10° W 23:44:47 25° NNW 23:49:32 10° NNE visible
08 Aug 10.4 01:30:38 10° NW 01:33:22 13° N 01:36:06 10° NNE visible
08 Aug 8.7 20:19:11 23° SE 20:21:02 27° ESE 20:25:50 10° NE visible
08 Aug 8.1 22:02:37 18° SW 22:06:58 64° NW 22:12:47 10° NNE visible
08 Aug 10.1 23:50:12 10° WNW 23:54:28 20° NNW 23:58:45 10° NNE visible
09 Aug 10.5 01:40:37 10° NNW 01:43:15 13° N 01:45:54 10° NNE visible
09 Aug 8.2 20:26:47 21° SSE 20:30:08 38° ESE 20:35:29 10° NE visible
09 Aug 8.7 22:10:45 10° WSW 22:16:23 47° NW 22:22:01 10° NNE visible
